Vorticity
nan nan nan nan nan nan nan nan nan nan nan nan nan nan nan nan nan nan nan nan nan nan nan nan nan nan nan nan nan nan nan nan nan nan nan nan nan nan nan nan nan nan nan
nan 10 8 7 6 5 4 4 4 4 5 5 6 5 5 5 5 5 4 4 6 6 6 5 5 7 6 5 4 6 5 5 4 4 3 3 3 5 5 6 6 7 nan
nan 7 8 7 6 6 7 7 4 4 4 5 5 6 5 6 6 5 4 4 6 6 6 4 6 6 6 6 4 4 4 4 3 3 3 4 4 6 6 6 6 7 nan
nan 5 8 8 6 5 5 8 7 5 4 5 4 6 5 5 5 5 4 3 5 6 5 4 6 6 6 5 3 2 1 2 4 3 3 7 6 5 5 6 5 6 nan
nan 7 9 9 6 6 5 4 6 6 5 5 6 5 6 4 6 5 4 3 4 7 5 5 6 6 4 3 3 3 3 5 4 2 5 7 7 6 5 5 6 6 nan
nan 8 10 8 6 5 6 6 6 6 6 5 5 6 6 6 4 4 4 4 7 7 5 4 5 5 3 3 4 7 10 5 1 4 6 6 7 7 5 5 5 5 nan
nan 7 11 7 5 5 5 6 6 8 7 6 6 6 6 6 4 7 3 6 7 4 6 5 5 5 4 4 4 8 8 3 2 5 6 5 8 6 5 5 5 5 nan
nan 10 14 12 11 12 9 8 9 10 11 10 8 7 7 5 6 5 4 7 9 5 1 6 4 4 4 4 3 7 7 3 4 6 5 6 7 5 5 5 5 5 nan
nan 6 8 10 8 5 6 11 8 7 9 21 18 8 8 8 8 6 6 5 3 6 4 4 5 4 4 4 3 5 8 5 4 5 5 6 6 5 4 4 5 5 nan
nan 8 6 3 3 1 1 2 2 4 6 14 20 12 10 11 11 8 6 7 5 3 4 5 5 5 4 4 4 5 7 4 4 5 5 7 7 4 4 4 4 4 nan
nan 8 8 8 5 4 3 -0 1 1 2 6 18 16 8 9 11 8 9 9 7 8 9 5 6 6 5 6 5 4 3 5 6 6 8 8 6 5 5 4 4 4 nan
nan 4 5 6 6 5 5 3 1 3 4 5 7 11 12 9 9 8 8 8 7 11 10 6 6 5 3 4 8 6 5 7 7 7 9 9 6 5 5 4 4 4 nan
nan 6 5 4 5 5 6 6 5 6 6 6 6 8 7 8 9 8 7 7 9 6 5 8 6 6 7 5 6 7 7 6 6 8 9 10 6 4 5 5 4 4 nan
nan 5 4 5 6 5 4 6 6 7 7 6 8 7 6 7 8 8 9 7 7 7 7 5 7 8 7 6 7 6 6 5 6 8 11 10 7 6 4 4 4 4 nan
nan 7 7 5 5 7 7 7 7 7 7 8 10 7 5 5 8 8 8 8 7 7 7 7 6 7 7 8 7 7 6 7 5 6 11 13 8 7 7 5 4 5 nan
nan 9 8 9 8 7 7 6 6 7 7 8 9 10 6 6 4 7 9 7 6 7 6 8 7 7 7 8 7 7 7 7 8 6 6 11 12 9 8 6 6 6 nan
nan 11 9 8 7 6 6 7 7 6 6 7 9 11 8 7 7 5 7 8 7 8 7 6 7 7 8 8 9 8 9 8 8 8 7 9 13 12 10 9 8 7 nan
nan 9 8 9 8 8 6 5 6 7 6 7 7 8 11 8 6 6 7 8 6 7 9 7 8 6 8 8 8 8 8 9 9 8 7 8 8 12 14 10 9 8 nan
nan 9 9 9 8 6 6 8 9 7 6 6 7 9 10 10 7 5 6 9 7 5 7 7 7 8 7 8 8 8 8 8 9 9 9 8 8 7 12 14 9 9 nan
nan 8 9 8 9 8 8 8 8 8 10 9 9 12 13 11 11 5 6 7 9 8 6 8 7 7 6 9 10 8 8 7 8 9 10 9 9 9 9 10 9 12 nan
nan 9 8 8 8 8 8 8 9 9 10 12 10 12 17 14 11 6 6 7 7 10 8 6 7 8 7 7 8 10 10 10 8 9 9 10 10 10 10 8 8 8 nan
nan 10 10 9 7 7 6 8 7 8 10 11 10 9 10 11 13 9 8 9 6 7 10 9 5 5 11 8 4 9 9 8 13 11 9 9 8 9 10 10 9 8 nan
nan 8 11 13 13 9 7 6 7 7 6 11 11 8 10 9 11 10 10 11 9 8 10 10 9 6 7 7 8 6 8 9 8 9 10 10 10 8 8 9 8 8 nan
nan 8 8 12 13 16 13 10 10 7 7 9 13 11 10 9 9 13 12 10 11 10 9 9 9 8 9 7 7 8 7 11 7 6 9 11 9 8 7 8 9 9 nan
nan 11 10 10 9 18 20 12 7 16 16 10 12 14 12 8 6 8 9 9 11 11 11 9 8 7 6 8 7 8 8 8 9 10 8 7 8 12 12 10 8 9 nan
nan nan nan nan nan nan nan nan nan nan nan nan nan nan nan nan nan nan nan nan nan nan nan nan nan nan nan nan nan nan nan nan nan nan nan nan nan nan nan nan nan nan nan
CAPE
538 1017 1878 1695 1973 2044 2041 1756 1669 1691 1701 1464 905 910 1074 986 724 208 105 208 211 262 543 467 408 147 101 67 74 201 85 4 4 42 54 257 61 7 0 0 0 1 182
630 1219 1804 1635 1790 1942 2043 2283 2094 1866 1829 1694 1143 869 639 800 455 138 729 775 597 373 787 386 360 189 18 108 7 0 2 1 0 0 0 0 6 1 3 7 8 2 25
930 1205 1320 1656 1705 1672 1826 2116 2104 2017 1953 1796 1528 639 1206 884 327 142 727 781 1008 874 628 84 10 6 7 11 0 0 0 0 0 0 0 0 0 3 1 4 5 4 3
1027 1193 1153 1693 1617 1365 1447 1729 1570 1694 1619 1754 1585 1284 1271 964 415 99 533 660 1001 789 413 8 4 0 0 2 3 2 0 0 0 0 0 0 0 6 6 4 1 1 1
992 1108 1182 1834 1752 1524 1159 1104 1475 1457 1398 1424 1394 1496 1390 1107 759 264 187 850 1191 920 571 4 0 1 5 6 4 0 0 0 0 0 0 0 0 2 5 5 4 5 2
948 926 1511 1869 1883 1698 1474 1097 625 1143 1292 1196 1257 1357 1255 1005 910 335 710 753 579 916 348 10 0 0 5 5 0 0 0 0 0 0 0 0 0 6 8 7 5 6 4
904 1020 1523 2003 1990 1782 1511 1387 1171 676 685 1283 1430 1116 1044 1015 808 823 790 729 356 551 447 22 0 0 0 0 0 0 0 0 0 0 0 0 0 5 6 8 6 5 5
501 931 1037 1307 1522 1481 1237 1192 1329 1094 985 1107 1320 1318 1247 1092 1136 994 998 536 331 51 628 171 0 0 0 0 0 0 0 0 0 0 0 0 3 3 3 4 2 2 3
0 0 0 17 110 38 12 72 161 173 291 452 1049 1186 1124 808 760 835 758 372 191 130 123 591 48 0 0 0 0 0 0 0 0 0 0 0 6 4 0 0 0 0 0
1 0 0 0 0 0 0 0 0 0 0 0 448 1046 616 379 475 433 439 157 18 44 276 521 251 38 1 0 0 0 0 0 0 0 0 0 3 3 0 0 0 0 0
1 0 0 0 0 0 0 0 0 0 0 0 27 573 430 159 141 45 6 7 48 288 461 458 417 357 99 4 0 0 0 0 0 0 0 0 0 1 2 0 0 0 0
1 3 1 0 0 0 0 0 0 0 0 0 0 63 57 63 45 1 0 1 47 303 446 577 384 187 6 0 0 0 0 0 0 0 0 0 0 0 9 0 0 3 0
0 0 0 0 0 0 0 0 0 0 0 0 0 86 16 10 0 0 0 7 35 42 27 45 13 0 0 0 0 0 0 0 0 0 0 0 34 16 17 23 17 29 41
6 1 0 0 0 0 0 0 0 0 0 0 0 75 37 2 0 0 0 1 21 6 0 0 0 0 0 0 0 0 0 0 0 0 0 0 96 42 26 24 30 36 56
7 9 1 0 0 0 0 0 0 0 0 0 0 86 53 7 0 0 3 1 0 0 0 0 0 0 0 0 0 0 0 0 0 0 0 0 0 171 213 45 34 39 45
0 0 0 0 0 0 0 0 0 0 0 0 0 37 111 55 3 3 2 0 1 0 0 0 0 0 0 0 0 0 0 0 0 0 0 0 0 5 159 156 52 33 28
9 0 0 0 0 0 0 0 0 0 0 0 0 1 84 67 14 2 3 4 0 0 4 0 0 0 0 0 0 0 0 0 0 0 0 0 0 0 19 108 130 72 36
1 1 0 0 0 0 0 0 0 0 0 0 0 0 25 57 45 1 7 2 19 23 33 0 0 0 0 0 0 0 0 0 0 0 0 0 0 0 0 33 165 242 126
22 40 16 0 0 3 0 0 0 0 0 4 2 5 20 62 37 22 0 1 61 16 0 0 0 0 0 0 0 0 0 0 0 0 0 0 0 0 0 0 2 45 78
50 45 14 10 11 6 0 1 8 26 2 2 16 104 66 58 57 51 5 1 27 24 8 0 0 0 0 0 0 0 0 0 0 0 0 0 0 0 0 0 0 0 0
86 80 29 28 35 0 0 2 3 4 8 25 79 96 53 53 2 1 1 11 0 16 20 0 0 0 0 0 0 0 0 0 0 0 0 0 0 0 0 0 0 0 0
84 86 78 59 55 20 2 0 1 19 36 56 35 79 34 12 0 1 0 0 3 1 35 18 2 0 0 0 0 0 17 4 0 0 0 0 0 0 0 0 0 0 0
11 6 71 140 137 55 13 13 18 34 33 52 68 51 54 38 7 13 1 0 0 2 0 4 5 0 0 0 0 16 14 15 0 0 0 0 0 0 0 0 0 0 0
0 0 13 41 65 9 29 48 47 15 12 23 12 43 24 42 10 28 52 66 55 49 48 30 23 17 28 48 11 1 3 0 0 0 0 0 0 0 0 0 0 0 0
1 3 2 1 3 1 36 57 22 31 11 18 7 6 22 22 9 16 2 15 34 35 26 41 47 31 58 57 33 24 14 14 0 0 0 0 0 0 0 0 0 0 0
1 2 0 2 3 3 2 3 1 18 2 18 7 1 1 3 6 1 2 6 26 46 57 35 20 23 15 9 14 6 10 22 6 0 0 0 0 0 0 0 0 0 0